Starlink 4707

operational
NORAD ID: 53721 Int'l Des: 2022-107 Owner: SPXS Country: US Constellation: starlink
LEOCIRCULAR

关于 Starlink 4707

正在加载描述...

实时位置

正在加载3D地球...

即将过境

高度历史

Altitude vs Time

uPlot chart will show altitude changes over time

两行轨道根数

1 53721U 22107X 26035.28964876 .00000011 00000-0 18761-4 0 9995
2 53721 53.2184 43.8965 0001454 91.8589 268.2570 15.08841894189378
Epoch: Feb 4, 2026 • Age: 11 hours

当前状态

高度 557.9 km
速度 7.58 km/s
星下点 -49.94°S, 114.89°W
发射日期 Sep 5, 2022
运行时间 3.4 years
类型 internet

技术详情

分类 Payload
质量 305.00 kg
干质量 290.00 kg
总质量 305.00 kg
长度 0.20 m
直径 2.80 m
跨度 9.00 m
形状 Box + pan
制造商 SPXS
平台类型 Starlink
阶段状态 In Orbit
所有者/国家 SPXS/US

大型星座

Loading constellations...